Regional Weather Roundup
Issued by NWS

Home | Current Version | Previous Version | Graphics & Text | Print | Product List | Glossary On
Versions: 1 2 3 4 5 6 7 8 9 10 11 12 13 14 15 16 17 18 19 20 21 22 23 24 25 26 27 28 29 30 31 32 33 34 35 36 37 38 39 40 41 42 43 44 45 46 47 48 49 50
000
ASUS43 KMPX 251901
RWRMN
WEATHER ROUNDUP FOR MINNESOTA
NATIONAL WEATHER SERVICE TWIN CITIES/CHANHASSEN MN
100 PM CST THU DEC 25 2014


NOTE: "FAIR" INDICATES FEW OR NO CLOUDS BELOW 12,000 FEET WITH NO
SIGNIFICANT WEATHER AND/OR OBSTRUCTIONS TO VISIBILITY. N/A MEANS
CURRENT SKY AND/OR WEATHER CONDITIONS ARE NOT AVAILABLE.

MNZ060>063-068>070-252000-
   Twin Cities Metro

CITY           SKY/WX    TMP DP  RH WIND       PRES   REMARKS
TWIN CITIES    CLOUDY    34  28  79 S5        29.74F WCI  30
ST PAUL        CLOUDY    34  29  82 S7        29.76S WCI  28
CRYSTAL        LGT SNOW  34  30  85 CALM      29.73S VSB 3/4
BLAINE         LGT SNOW  34  34 100 S3        29.74S VSB 1
LAKEVILLE      CLOUDY    34  28  80 S6        29.73S WCI  29
EDEN PRAIRIE   CLOUDY    34  29  82 S7        29.73S WCI  28
SOUTH ST PAUL  CLOUDY    35  30  81 S5        29.74F WCI  31
LAKE ELMO      CLOUDY    34  32  93 S6        29.75F WCI  29
$$
MNZ001>005-007-008-013>017-022>024-027-028-252000-
   Northwest Minnesota

CITY           SKY/WX    TMP DP  RH WIND       PRES   REMARKS
BEMIDJI        CLOUDY    29  26  86 W8        29.69R WCI  21
HALLOCK          N/A     28  25  86 NW14      29.75R WCI  17
ROSEAU         CLOUDY    28  23  80 W6        29.71R WCI  22
WARROAD        CLOUDY    27  23  86 W7        29.70R WCI  19
THIEF RVR FALL CLOUDY    28  23  80 NW10      29.74R WCI  19
CROOKSTON      CLOUDY    28  25  86 N12       29.77R WCI  18
FOSSTON        CLOUDY    27  25  93 NW7       29.73R WCI  19
DETROIT LAKES  CLOUDY    30  28  93 NW8       29.73R WCI  23
MOORHEAD       CLOUDY    28  28 100 NW8       29.78R WCI  20
PARK RAPIDS    CLOUDY    30  23  75 NW6       29.70R WCI  24
MAHNOMEN       CLOUDY    28  25  91 W9        29.72R WCI  19
$$
MNZ006-009>011-018-025>026-252000-
   North Central Minnesota

CITY           SKY/WX    TMP DP  RH WIND       PRES   REMARKS
BAUDETTE       CLOUDY    28  22  78 NW8       29.67R WCI  20
FLAG ISLAND    CLOUDY    27  25  93 NW14      29.67R WCI  15
INTL FALLS     CLOUDY    31  26  82 W10       29.65R WCI  22
WASKISH        CLOUDY    30  27  86 CALM      29.69R
BIG FORK       CLOUDY    30  25  80 W5        29.68R WCI  25
LONGVILLE      CLOUDY    28  25  86 NW3       29.70R
GRAND RAPIDS   CLOUDY    28  25  86 NW10      29.68R WCI  19
CRANE LAKE     CLOUDY    30  27  86 W6        29.67R WCI  24
ORR            CLOUDY    30  23  74 W6        29.64R WCI  24
COOK           CLOUDY    30  27  86 W6        29.67R WCI  24
WALKER         CLOUDY    29  24  80 W5        29.69S WCI  24
$$
MNZ012-019>021-037-252000-
   Northeast Minnesota

CITY           SKY/WX    TMP DP  RH WIND       PRES   REMARKS
DULUTH         CLOUDY    32  26  78 W12       29.68R WCI  23
ELY            CLOUDY    30  27  86 W7        29.65R WCI  23
HIBBING        CLOUDY    32  25  75 W6        29.67R WCI  26
EVELETH        PTSUNNY   32  28  86 W8        29.67R WCI  25
DULUTH HARBOR  CLOUDY    34  30  86 SW7       29.73R WCI  28
TWO HARBORS    CLOUDY    36  28  75 W7        29.67R
SILVER BAY     CLOUDY    34  28  80 W6        29.66R WCI  29
GRAND MARAIS     N/A     35  28  75 W7        29.67R WCI  29
G MARAIS ARPRT CLOUDY    28  25  86 W7        29.62R WCI  21
$$
MNZ029>031-032-039>041-046>048-054>057-064-252000-
   West Central Minnesota

CITY           SKY/WX    TMP DP  RH WIND       PRES   REMARKS
FERGUS FALLS   CLOUDY    28  25  86 N7        29.77R WCI  21
WHEATON        CLOUDY    27  25  93 NW10      29.78R WCI  17
MORRIS         CLOUDY    28  27  93 NW10      29.73R WCI  19
ALEXANDRIA     CLOUDY    31  27  85 N7        29.71R WCI  24
ELBOW LAKE     CLOUDY    28  26  94 N9        29.73R WCI  19
WADENA         CLOUDY    27  25  93 N6        29.71R WCI  20
GLENWOOD       CLOUDY    32  28  86 NW5       29.72R WCI  27
APPLETON       CLOUDY    34  28  80 N10       29.73R WCI  26
BENSON         CLOUDY    34  28  80 N7        29.73R WCI  28
ORTONVILLE     CLOUDY    30  27  86 N12       29.74R WCI  21
MADISON        LGT SNOW  36  34  93 N7        29.73R
WILLMAR        LGT SNOW  32  30  93 CALM      29.73S
$$
MNZ033>034-036-042>043-049>051-058-059-252000-
   Central Minnesota

CITY           SKY/WX    TMP DP  RH WIND       PRES   REMARKS
ST CLOUD       CLOUDY    35  28  75 S7        29.73R WCI  29
SAUK CENTRE    CLOUDY    32  28  88 W6        29.72R WCI  26
PAYNESVILLE    CLOUDY    30  28  93 CALM      29.72S FOG
AITKIN         CLOUDY    34  28  80 CALM      29.69R
PINE RIVER     CLOUDY    30  27  86 NW3       29.74R
BRAINERD       CLOUDY    32  27  81 SW6       29.71R WCI  26
STAPLES        CLOUDY    28  27  93 NW3       29.71R
LONG PRAIRIE   CLOUDY    32  28  86 CALM      29.71S
LITTLE FALLS   CLOUDY    32  28  86 W5        29.72S WCI  27
LITCHFIELD     LGT SNOW  34  34 100 CALM      29.72S
BUFFALO        LGT SNOW  32  30  92 CALM      29.74S
MAPLE LAKE     LGT SNOW  33  32  96 CALM      29.74R
$$
MNZ037-044-045-052-053-252000-
   East Central Minnesota

CITY           SKY/WX    TMP DP  RH WIND       PRES   REMARKS
PRINCETON      LGT SNOW  34  30  86 CALM      29.74R
MORA           CLOUDY    32  27  80 SW5       29.74S WCI  27
CAMBRIDGE      LGT SNOW  34  27  75 CALM      29.72S
RUSH CITY      CLOUDY    32  28  86 SW5       29.74S WCI  27
MOOSE LAKE     CLOUDY    32  28  86 W7        29.70R WCI  26
HINCKLEY       CLOUDY    32  30  93 CALM      29.73S FOG
CLOQUET        CLOUDY    32  27  80 SW8       29.70R WCI  25
MCGREGOR       CLOUDY    32  30  93 W5        29.71R WCI  27
$$
MNZ071>073-080-081-089-090-097-098-252000-
   Southwest Minnesota

CITY           SKY/WX    TMP DP  RH WIND       PRES   REMARKS
MONTEVIDEO     LGT SNOW  32  32 100 CALM      29.74R
GRANITE FALLS  LGT SNOW  31  30  96 N5        29.73R WCI  26
CANBY          LGT SNOW  32  31  96 N8        29.73R WCI  25
MARSHALL       CLOUDY    32  27  80 N12       29.71R WCI  23
REDWOOD FALLS  LGT SNOW  33  28  81 NE5       29.71S WCI  29
OLIVIA         LGT SNOW  32  32 100 CALM      29.71R VSB 1
PIPESTONE      CLOUDY    32  30  93 E8        29.66R WCI  25
WINDOM           N/A     36  28  75 CALM      29.68R
WORTHINGTON    MOSUNNY   37 -11  12 CALM      29.68R
JACKSON        MOSUNNY   36  30  80 S7        29.69R
TRACY          CLOUDY    33  30  91 N8        29.70S WCI  25
SLAYTON        PTSUNNY   32  29  90 NE3       29.67F
$$
MNZ065>067-074>077-082>085-091>093-252000-
   South Central Minnesota

CITY           SKY/WX    TMP DP  RH WIND       PRES   REMARKS
MANKATO        CLOUDY    36  27  69 S7        29.71F
NEW ULM        CLOUDY    34  30  86 CALM      29.71S
ST JAMES       PTSUNNY   37  30  75 CALM      29.71R
FAIRMONT       PTSUNNY   34  27  75 S9        29.70R WCI  26
GLENCOE        LGT SNOW  34  32  92 CALM      29.73R
FARIBAULT      CLOUDY    34  30  86 SE8       29.73F WCI  27
OWATONNA       PTSUNNY   36  30  80 S9        29.73S
ALBERT LEA     PTSUNNY   36  30  80 S6        29.71F
$$
MNZ078>079-086>088-094>096-252000-
   Southeast Minnesota

CITY           SKY/WX    TMP DP  RH WIND       PRES   REMARKS
ROCHESTER      CLOUDY    33  29  85 S9        29.75S WCI  25
RED WING       CLOUDY    36  28  75 S5        29.76S
STANTON        CLOUDY    35  30  82 S7        29.73S WCI  29
DODGE CENTER   CLOUDY    34  30  86 S14       29.73S WCI  24
WINONA         CLOUDY    36  30  80 S3        29.79S
AUSTIN         PTSUNNY   34  30  86 S9        29.72F WCI  26
PRESTON        CLOUDY    34  29  83 S13G20    29.76S WCI  25
$$
ABBREVIATIONS USED IN REMARKS
   TC - TEMPERATURES IN CELSIUS
  WCI - WIND CHILL INDEX
   HX - HEAT INDEX
  VSB - VISIBILITY
$$


USA.gov is the U.S. government's official web portal to all federal, state and local government web resources and services.